Weather History for Spirit of St Louis, MO

Change the Weather History Date:

Saturday, December 8, 2012

  Actual Average Record
Temperature  
Mean Temperature 46 °F -  
Max Temperature 48 °F 45 °F 57 °F (1999)
Min Temperature 44 °F 27 °F 8 °F (2005)
Degree Days  
Heating Degree Days 19    
Moisture  
Dew Point 42 °F    
Average Humidity 88    
Maximum Humidity 100    
Minimum Humidity 76    
Precipitation  
Precipitation 0.17 in - - ()
Sea Level Pressure  
Sea Level Pressure 29.94 in    
Wind  
Wind Speed 5 mph (North)    
Max Wind Speed 12 mph    
Max Gust Speed -    
Visibility 6 miles    
Events Rain    
Averages and records for this station are not official NWS values.
T = Trace of Precipitation, MM = Missing Value Source: NWS Daily Summary

Daily Weather History Graph

Daily Weather History Graph

Search for Another Location

Airport:

Trip Planner

Search our weather history database for the weather conditions in past years. The results will help you decide how hot, cold, wet, or windy it might be!

Date:

Astronomy

Dec. 08, 2012 Rise Set
Actual Time 7:08 AM CST 4:41 PM CST
Civil Twilight 6:38 AM CST 5:10 PM CST
Nautical Twilight 6:05 AM CST 5:43 PM CST
Astronomical Twilight 5:33 AM CST 6:16 PM CST
Moon 1:36 AM CST (12/8) 1:08 PM CST (12/8)
Length of Visible Light 10h 32m
Length of Day
9h 32m
Waning Crescent, 28% of the Moon is Illuminated
Dec 8
Waning Crescent
Dec 13
New
Dec 19
First Quarter
Dec 28
Full
Jan 4
Last Quarter

Hourly Weather History & Observations

Time (CST) Temp. Windchill Dew Point Humidity Pressure Visibility Wind Dir Wind Speed Gust Speed Precip Events Conditions
12:14 AM 48.2 °F - 46.4 °F 93% 29.89 in 2.5 mi NW 5.8 mph - 0.04 in Rain Rain
12:18 AM 48.2 °F - 46.4 °F 93% 29.89 in 3.0 mi NW 5.8 mph - 0.05 in Rain Light Rain
12:38 AM 48.2 °F - 46.4 °F 93% 29.89 in 2.5 mi WNW 5.8 mph - 0.09 in Rain Rain
12:50 AM 48.2 °F - 46.4 °F 93% 29.89 in 3.0 mi WNW 4.6 mph - 0.11 in Rain Rain
12:54 AM 48.0 °F - 46.0 °F 93% 29.89 in 3.0 mi WNW 3.5 mph - 0.11 in Rain Light Rain
1:08 AM 46.4 °F - 46.4 °F 100% 29.88 in 3.0 mi Calm Calm - 0.02 in Rain Light Rain
1:35 AM 46.4 °F - 46.4 °F 100% 29.87 in 2.5 mi Calm Calm - 0.03 in Rain Light Rain
1:54 AM 46.9 °F - 46.0 °F 97% 29.88 in 2.5 mi Calm Calm - 0.04 in Rain Light Rain
2:38 AM 46.4 °F 45.2 °F 46.4 °F 100% 29.88 in 3.0 mi West 3.5 mph - 0.02 in Rain Light Rain
2:54 AM 46.9 °F - 46.0 °F 97% 29.88 in 3.0 mi WNW 3.5 mph - 0.02 in Rain Light Rain
3:45 AM 46.4 °F 43.5 °F 44.6 °F 93% 29.89 in 4.0 mi WNW 5.8 mph - 0.00 in Rain Light Rain
3:54 AM 46.9 °F - 45.0 °F 93% 29.89 in 6.0 mi WNW 5.8 mph - 0.00 in   Overcast
4:07 AM 46.4 °F 41.1 °F 44.6 °F 93% 29.90 in 7.0 mi WNW 11.5 mph - N/A   Overcast
4:54 AM 46.9 °F - 44.1 °F 90% 29.91 in 9.0 mi NW 6.9 mph - N/A   Overcast
5:54 AM 46.0 °F 43.1 °F 43.0 °F 89% 29.94 in 7.0 mi WNW 5.8 mph - N/A   Overcast
6:54 AM 45.0 °F 42.6 °F 43.0 °F 93% 29.96 in 6.0 mi WNW 4.6 mph - N/A   Overcast
7:54 AM 45.0 °F 41.8 °F 42.1 °F 90% 29.97 in 4.0 mi NNW 5.8 mph - N/A   Overcast
8:54 AM 45.0 °F 40.1 °F 41.0 °F 86% 29.99 in 5.0 mi NW 9.2 mph - N/A   Overcast
9:54 AM 45.0 °F 40.6 °F 41.0 °F 86% 30.00 in 4.0 mi North 8.1 mph - N/A   Overcast
10:54 AM 45.0 °F 41.2 °F 39.9 °F 82% 30.00 in 5.0 mi North 6.9 mph - N/A   Haze
11:54 AM 46.0 °F 43.1 °F 39.0 °F 76% 29.99 in 8.0 mi NE 5.8 mph - N/A   Overcast
12:54 PM 45.0 °F 41.8 °F 37.9 °F 76% 29.98 in 9.0 mi NNE 5.8 mph - N/A   Overcast
1:54 PM 45.0 °F - 37.9 °F 76% 29.98 in 9.0 mi Calm Calm - N/A   Overcast
2:43 PM 44.6 °F 40.7 °F 39.2 °F 81% 29.97 in 6.0 mi ENE 6.9 mph - N/A   Haze
2:54 PM 45.0 °F 41.8 °F 39.0 °F 80% 29.99 in 7.0 mi ENE 5.8 mph - N/A   Overcast
3:54 PM 45.0 °F 41.2 °F 37.9 °F 76% 29.98 in 10.0 mi East 6.9 mph - N/A   Overcast
4:54 PM 44.1 °F 39.5 °F 39.0 °F 82% 29.99 in 8.0 mi ENE 8.1 mph - N/A   Overcast
5:54 PM 44.1 °F 40.1 °F 39.0 °F 82% 30.00 in 8.0 mi NE 6.9 mph - N/A   Overcast
6:54 PM 44.1 °F 40.1 °F 39.0 °F 82% 29.99 in 7.0 mi East 6.9 mph - N/A   Overcast
7:54 PM 44.1 °F 40.1 °F 39.0 °F 82% 29.98 in 10.0 mi ENE 6.9 mph - N/A   Overcast
8:54 PM 44.6 °F 38.8 °F 39.2 °F 81% 29.95 in 7.0 mi East 11.5 mph - N/A   Overcast
9:54 PM 44.1 °F 40.1 °F 39.0 °F 82% 29.96 in 7.0 mi East 6.9 mph - N/A   Overcast
10:54 PM 44.1 °F 40.8 °F 39.0 °F 82% 29.96 in 7.0 mi East 5.8 mph - N/A   Overcast
11:54 PM 44.1 °F 39.5 °F 39.9 °F 85% 29.95 in 5.0 mi East 8.1 mph - 0.00 in Rain Light Rain